Location: Clatteringshaws Loch
(55.0508°N, 4.2860°W)
Time: 05:44:26
(UTC+00:00)

Amateur Radio Satellites - All Passes

Search period start: 27 January 2015 05:14
Search period end: 28 January 2015 05:14
Location: Clatteringshaws Loch, 55.0508°N, 4.2860°W

Satellite Date Start Highest point End Downlink Frequencies (MHz)
Time Altitude Azimuth
AIST 2 27 Jan 05:16:00 05:20:19 82° 318° (NW) 05:24:40 435.215
DANDE 27 Jan 05:18:36 05:27:02 89° 103° (ESE) 05:35:42 436.750
ITAMSAT 1 27 Jan 05:28:12 05:30:40 13° 316° (NW) 05:32:59 435.822/435.867
Cubesat XI-IV 27 Jan 05:29:12 05:32:54 19° 86° (E) 05:36:44 437.490
STRAND 1 27 Jan 05:34:14 05:39:13 57° 67° (ENE) 05:44:16 437.568
BEESAT 2 27 Jan 05:35:14 05:39:13 40° 330° (NNW) 05:43:14 435.950
AO-7 27 Jan 05:36:14 05:44:37 78° 296° (WNW) 05:52:55 29.400- 29.500
CUTE-I 27 Jan 05:49:37 05:54:03 26° 90° (E) 05:58:33 437.470
BEESAT 3 27 Jan 05:52:35 05:56:23 32° 335° (NNW) 06:00:12 437.485
YUBILEINY 27 Jan 05:53:31 06:01:51 45° 63° (ENE) 06:10:14 435.215
GONETS M04 27 Jan 05:56:38 06:01:09 14° 331° (NNW) 06:05:25
CUSAT 1 27 Jan 06:03:00 06:11:13 55° 295° (WNW) 06:19:18 437.405
PRISM 27 Jan 06:09:06 06:13:02 42° 261° (W) 06:16:58 437.425
PCSat 27 Jan 06:10:01 06:15:28 83° 128° (SE) 06:20:56 145.827
Gurwin Techsat 1B 27 Jan 06:10:50 06:11:22 10° 321° (NW) 06:11:42 435.225
RS-15 27 Jan 06:18:29 06:29:12 69° 126° (SE) 06:40:13 29.354- 29.394
CUBESAT XI-V 27 Jan 06:34:13 06:38:36 42° 263° (W) 06:43:00 437.345
AIST 2 27 Jan 06:55:41 06:59:30 29° 340° (NNW) 07:03:18 435.215
JAS-2 27 Jan 06:59:50 07:04:24 29° 302° (WNW) 07:09:15 435.910
DANDE 27 Jan 07:03:54 07:11:36 35° 306° (NW) 07:19:09 436.750
Cubesat XI-IV 27 Jan 07:08:24 07:13:49 89° 293° (WNW) 07:19:14 437.490
STRAND 1 27 Jan 07:14:21 07:18:47 29° 268° (W) 07:23:11 437.568
BRITE-PL 27 Jan 07:15:01 07:17:02 12° 76° (ENE) 07:19:20 437.365/2234.400
BEESAT 2 27 Jan 07:15:03 07:18:23 22° 353° (N) 07:21:44 435.950
CUTE-I 27 Jan 07:29:17 07:34:38 66° 292° (WNW) 07:39:58 437.470
AO-7 27 Jan 07:29:29 07:36:26 30° 319° (NW) 07:43:15 29.400- 29.500
BEESAT 3 27 Jan 07:32:19 07:35:35 21° 359° (N) 07:38:51 437.485
ANTELSAT 27 Jan 07:40:39 07:41:54 11° 47° (NE) 07:43:19 437.575/2403.000
DOVE 4 27 Jan 07:49:12 07:50:40 11° 77° (ENE) 07:52:23 437.250
TIGRISAT 27 Jan 07:49:14 07:51:08 13° 48° (NE) 07:53:10 435.000
CUSAT 1 27 Jan 07:50:04 07:56:16 21° 318° (NW) 08:02:02 437.405
YUBILEINY 27 Jan 07:50:33 07:59:07 60° 268° (W) 08:07:40 435.215
PCSat 27 Jan 07:54:27 07:59:26 35° 333° (NNW) 08:04:26 145.827
SEEDS 27 Jan 08:06:21 08:08:21 13° 84° (E) 08:10:31 437.485
HO-68 27 Jan 08:24:59 08:31:14 32° 92° (E) 08:37:33 435.675
NANOSAT C BR1 27 Jan 08:29:39 08:32:02 15° 53° (NE) 08:34:32 145.865
RS-15 27 Jan 08:31:08 08:42:01 63° 335° (NNW) 08:53:11 29.354- 29.394
AIST 2 27 Jan 08:35:48 08:39:16 22° 4° (N) 08:42:42 435.215
COMPASS 1 27 Jan 08:35:55 08:39:03 21° 89° (E) 08:42:15 437.405
UNISAT 6 27 Jan 08:38:15 08:42:08 26° 59° (ENE) 08:46:03 437.425
QB50P2 27 Jan 08:41:47 08:44:43 18° 56° (NE) 08:47:44 145.880/145.840
CANX-2 27 Jan 08:42:00 08:45:51 32° 95° (E) 08:49:42 2200.000
Cubesat XI-IV 27 Jan 08:49:16 08:53:21 22° 308° (NW) 08:57:21 437.490
BRITE-PL 27 Jan 08:51:17 08:56:56 56° 99° (E) 09:02:29 437.365/2234.400
QB50P1 27 Jan 08:51:41 08:54:54 21° 58° (ENE) 08:58:12 145.935-145.965
DANDE 27 Jan 08:53:23 08:58:00 15° 332° (NNW) 09:02:16 436.750
BEESAT 2 27 Jan 08:54:11 08:57:46 26° 17° (NNE) 09:01:21 435.950
Oscar 11 27 Jan 08:59:19 09:02:11 17° 87° (E) 09:05:09 145.826/435.025
GOMX 1 27 Jan 09:00:03 09:05:25 49° 97° (E) 09:10:39 467.674
AAUSAT CUBESAT 2 27 Jan 09:03:52 09:07:39 32° 95° (E) 09:11:24 437.432
POLYITAN 1 27 Jan 09:04:13 09:07:48 26° 61° (ENE) 09:11:29 437.675
CUTE 1.7 + AOD 2 27 Jan 09:06:25 09:10:34 49° 99° (E) 09:14:42 437.475
CUTE-I 27 Jan 09:10:26 09:13:54 17° 312° (NW) 09:17:13 437.470
BEESAT 3 27 Jan 09:11:05 09:14:49 30° 22° (NNE) 09:18:32 437.485
ANTELSAT 27 Jan 09:13:13 09:17:44 46° 67° (ENE) 09:22:15 437.575/2403.000
DELFI C3 27 Jan 09:14:15 09:17:06 19° 89° (E) 09:20:03 145.870
BUGSAT 1 27 Jan 09:16:42 09:20:07 26° 61° (ENE) 09:23:39 437.445
AO-7 27 Jan 09:22:09 09:26:43 16° 346° (NNW) 09:31:11 29.400- 29.500
TIGRISAT 27 Jan 09:22:25 09:27:01 54° 68° (ENE) 09:31:37 435.000
CUBEBUG 2 27 Jan 09:23:37 09:27:19 23° 89° (E) 09:30:59 437.445
DOVE 4 27 Jan 09:24:29 09:29:45 57° 99° (E) 09:34:50 437.250
POPSAT HIP 1 27 Jan 09:25:12 09:29:10 37° 65° (ENE) 09:33:11 437.405
DUCHIFAT 1 27 Jan 09:29:21 09:33:20 40° 65° (ENE) 09:37:24 145.980
CINEMA 3 27 Jan 09:30:38 09:35:21 40° 96° (E) 09:39:53 145.822/145.860
UKube-1 27 Jan 09:33:01 09:36:19 21° 90° (E) 09:39:41 .
PCSat 27 Jan 09:40:00 09:44:20 23° 358° (N) 09:48:40 145.827
SEEDS 27 Jan 09:40:41 09:44:56 88° 105° (ESE) 09:49:08 437.485
ZACube-1 27 Jan 09:42:28 09:46:07 24° 90° (E) 09:49:45 437.345
YUBILEINY 27 Jan 09:49:02 09:54:13 17° 291° (WNW) 09:59:02 435.215
DX 1 27 Jan 09:50:25 09:54:19 30° 95° (E) 09:58:13 434.975-435.025
FUNcube-1 27 Jan 09:55:08 09:59:06 30° 93° (E) 10:03:01 145.935
GONETS M04 27 Jan 09:59:08 10:04:54 19° 39° (NE) 10:10:53
NANOSAT C BR1 27 Jan 10:03:00 10:07:17 77° 73° (ENE) 10:11:37 145.865
AISAT 27 Jan 10:03:12 10:06:24 19° 88° (E) 10:09:43 437.250
50 SAT 27 Jan 10:05:19 10:08:02 17° 88° (E) 10:10:48 437.505
HUMSAT D 27 Jan 10:05:24 10:08:47 22° 90° (E) 10:12:10 437.325/437.525
UWE-3 27 Jan 10:08:44 10:13:11 45° 98° (E) 10:17:30 435.000/436.395/437.385
Oscar 19 27 Jan 10:09:26 10:10:08 10° 40° (NE) 10:11:01 437.125/150
COMPASS 1 27 Jan 10:11:02 10:15:11 58° 290° (WNW) 10:19:17 437.405
HO-68 27 Jan 10:12:29 10:19:39 73° 294° (WNW) 10:26:46 435.675
UNISAT 6 27 Jan 10:13:58 10:18:39 60° 259° (W) 10:23:20 437.425
AIST 2 27 Jan 10:14:51 10:18:54 37° 27° (NNE) 10:22:55 435.215
QB50P2 27 Jan 10:15:51 10:20:09 82° 255° (WSW) 10:24:31 145.880/145.840
CANX-2 27 Jan 10:17:56 10:21:53 37° 295° (WNW) 10:25:47 2200.000
QB50P1 27 Jan 10:26:10 10:30:26 67° 257° (WSW) 10:34:45 145.935-145.965
BRITE-PL 27 Jan 10:30:05 10:35:15 36° 299° (WNW) 10:40:20 437.365/2234.400
VELOX 1 27 Jan 10:32:21 10:36:24 32° 95° (E) 10:40:27 145.980
BEESAT 2 27 Jan 10:32:26 10:36:39 68° 39° (NE) 10:40:49 435.950
Oscar 11 27 Jan 10:34:36 10:38:57 74° 288° (WNW) 10:43:14 145.826/435.025
GOMX 1 27 Jan 10:38:22 10:43:27 38° 298° (WNW) 10:48:23 467.674
POLYITAN 1 27 Jan 10:39:20 10:43:33 51° 260° (W) 10:47:50 437.675
AAUSAT CUBESAT 2 27 Jan 10:39:31 10:43:23 37° 295° (WNW) 10:47:12 437.432
CUTE 1.7 + AOD 2 27 Jan 10:42:45 10:46:20 26° 299° (WNW) 10:49:50 437.475
RS-15 27 Jan 10:45:42 10:56:27 53° 7° (N) 11:07:38 29.354- 29.394
CUBEBUG 1 27 Jan 10:48:40 10:52:09 22° 90° (E) 10:55:41 437.445
DELFI C3 27 Jan 10:48:46 10:52:48 61° 289° (WNW) 10:56:47 145.870
BEESAT 3 27 Jan 10:49:13 10:53:26 88° 225° (SW) 10:57:36 437.485
ANTELSAT 27 Jan 10:50:29 10:54:44 31° 267° (W) 10:58:54 437.575/2403.000
BUGSAT 1 27 Jan 10:51:26 10:55:26 48° 261° (W) 10:59:31 437.445
SO-50 27 Jan 10:57:14 11:00:49 23° 118° (ESE) 11:04:34 436.795
CUBEBUG 2 27 Jan 10:59:49 11:04:29 61° 290° (WNW) 11:08:58 437.445
TIGRISAT 27 Jan 11:00:01 11:04:04 27° 268° (W) 11:08:03 435.000
AIST 1 27 Jan 11:00:44 11:03:59 22° 87° (E) 11:07:20
POPSAT HIP 1 27 Jan 11:01:12 11:05:08 34° 265° (W) 11:09:05 437.405
DOVE 4 27 Jan 11:02:35 11:07:17 32° 300° (WNW) 11:11:49 437.250
DUCHIFAT 1 27 Jan 11:05:28 11:09:19 31° 266° (W) 11:13:11 145.980
CINEMA 3 27 Jan 11:07:55 11:12:34 39° 296° (WNW) 11:17:01 145.822/145.860
UKube-1 27 Jan 11:08:34 11:12:55 62° 290° (WNW) 11:17:13 .
AO-7 27 Jan 11:11:45 11:16:18 16° 15° (NNE) 11:20:56 29.400- 29.500
SEEDS 27 Jan 11:17:31 11:20:15 17° 305° (NW) 11:22:53 437.485
ZACube-1 27 Jan 11:18:24 11:22:52 56° 291° (WNW) 11:27:12 437.345
PCSat 27 Jan 11:24:28 11:29:18 31° 23° (NNE) 11:34:10 145.827
DX 1 27 Jan 11:26:32 11:30:44 44° 294° (WNW) 11:34:55 434.975-435.025
TISAT 1 27 Jan 11:30:18 11:32:56 16° 87° (E) 11:35:43 437.305
FUNcube-1 27 Jan 11:31:20 11:35:39 44° 294° (WNW) 11:39:51 145.935
ESTCUBE 1 27 Jan 11:33:55 11:38:24 55° 101° (E) 11:42:52 437.505/2401.250
AISAT 27 Jan 11:39:03 11:43:35 72° 289° (WNW) 11:48:05 437.250
50 SAT 27 Jan 11:39:33 11:43:40 69° 288° (WNW) 11:47:41 437.505
HUMSAT D 27 Jan 11:40:43 11:44:56 55° 291° (WNW) 11:49:05 437.325/437.525
NANOSAT C BR1 27 Jan 11:40:56 11:43:46 17° 273° (W) 11:46:30 145.865
Oscar 19 27 Jan 11:43:30 11:48:14 37° 62° (ENE) 11:53:02 437.125/150
UWE-3 27 Jan 11:45:31 11:49:37 31° 298° (WNW) 11:53:34 435.000/436.395/437.385
COMPASS 1 27 Jan 11:48:40 11:50:08 11° 309° (NW) 11:51:26 437.405
AIST 2 27 Jan 11:53:30 11:57:48 63° 229° (SW) 12:02:00 435.215
QB50P2 27 Jan 11:54:49 11:56:53 13° 276° (W) 11:58:48 145.880/145.840
ITAMSAT 1 27 Jan 11:55:08 11:59:05 23° 54° (NE) 12:03:08 435.822/435.867
UNISAT 6 27 Jan 11:55:33 11:56:32 10° 280° (W) 11:57:17 437.425
GONETS M04 27 Jan 11:55:47 12:04:18 55° 67° (ENE) 12:12:49
HO-68 27 Jan 12:00:52 12:06:26 25° 316° (NW) 12:11:54 435.675
QB50P1 27 Jan 12:06:20 12:07:17 10° 279° (W) 12:08:02 145.935-145.965
VELOX 1 27 Jan 12:08:51 12:13:08 42° 295° (WNW) 12:17:22 145.980
BRITE-PL 27 Jan 12:10:56 12:12:21 11° 320° (NW) 12:13:34 437.365/2234.400
BEESAT 2 27 Jan 12:11:05 12:14:35 25° 240° (WSW) 12:18:00 435.950
Oscar 11 27 Jan 12:12:05 12:14:28 14° 308° (NW) 12:16:44 145.826/435.025
GOMX 1 27 Jan 12:18:42 12:20:15 11° 319° (NW) 12:21:36 467.674
SPROUT 27 Jan 12:19:34 12:23:45 42° 98° (E) 12:27:55 437.525
SWISSCUBE 27 Jan 12:24:00 12:25:41 12° 82° (E) 12:27:35 437.505
CUBEBUG 1 27 Jan 12:24:32 12:28:55 60° 291° (WNW) 12:33:18 437.445
DELFI C3 27 Jan 12:25:52 12:27:19 12° 309° (NW) 12:28:37 145.870
BEESAT 3 27 Jan 12:28:14 12:31:03 17° 244° (WSW) 12:33:46 437.485
DANDE 27 Jan 12:29:15 12:33:10 14° 27° (NNE) 12:36:58 436.750
SO-50 27 Jan 12:36:12 12:40:54 84° 318° (NW) 12:45:45 436.795
Gurwin Techsat 1B 27 Jan 12:37:06 12:41:44 32° 59° (ENE) 12:46:26 435.225
AIST 1 27 Jan 12:37:12 12:41:23 52° 287° (WNW) 12:45:36
CUBEBUG 2 27 Jan 12:37:56 12:40:21 14° 310° (NW) 12:42:35 437.445
BEESAT 27 Jan 12:39:33 12:42:14 15° 85° (E) 12:45:04 436.000
ITUPSAT 1 27 Jan 12:41:49 12:44:35 16° 85° (E) 12:47:32 437.325
UKube-1 27 Jan 12:46:15 12:48:20 13° 310° (NW) 12:50:17 .
CINEMA 3 27 Jan 12:48:12 12:48:33 10° 317° (NW) 12:48:45 145.822/145.860
ZACube-1 27 Jan 12:56:30 12:58:22 12° 311° (NW) 13:00:04 437.345
HORYU 2 27 Jan 12:57:34 13:00:28 17° 53° (NE) 13:03:27 437.375
RS-15 27 Jan 12:59:12 13:10:26 79° 38° (NE) 13:22:11 29.354- 29.394
AO-7 27 Jan 12:59:42 13:06:37 31° 41° (NE) 13:13:38 29.400- 29.500
TISAT 1 27 Jan 13:05:03 13:09:23 80° 288° (WNW) 13:13:42 437.305
PCSat 27 Jan 13:07:59 13:13:29 82° 47° (NE) 13:18:56 145.827
FUNcube-1 27 Jan 13:10:33 13:10:59 10° 314° (NW) 13:11:17 145.935
ESTCUBE 1 27 Jan 13:11:15 13:15:04 26° 300° (WNW) 13:18:48 437.505/2401.250
CUSAT 1 27 Jan 13:11:27 13:16:40 20° 40° (NE) 13:21:17 437.405
50 SAT 27 Jan 13:16:13 13:18:06 13° 308° (NW) 13:19:52 437.505
AISAT 27 Jan 13:16:54 13:19:32 15° 309° (NW) 13:22:03 437.250
HUMSAT D 27 Jan 13:18:27 13:19:54 11° 311° (NW) 13:21:13 437.325/437.525
Oscar 19 27 Jan 13:22:33 13:27:34 46° 262° (W) 13:32:35 437.125/150
ITAMSAT 1 27 Jan 13:32:53 13:38:05 83° 254° (WSW) 13:43:21 435.822/435.867
AIST 2 27 Jan 13:33:53 13:35:40 12° 248° (WSW) 13:37:17 435.215
KKS-1 27 Jan 13:39:38 13:41:25 12° 83° (E) 13:43:24 437.445
HO-68 27 Jan 13:49:52 13:51:49 11° 342° (NNW) 13:53:38 435.675
JAS-2 27 Jan 13:52:23 13:55:12 15° 47° (NE) 13:58:08 435.910
GONETS M04 27 Jan 13:52:57 14:01:11 49° 272° (W) 14:09:20
SPROUT 27 Jan 13:55:54 13:59:46 31° 297° (WNW) 14:03:35 437.525
SWISSCUBE 27 Jan 13:59:48 14:04:36 67° 104° (ESE) 14:09:22 437.505
CUBEBUG 1 27 Jan 14:02:30 14:04:31 13° 310° (NW) 14:06:25 437.445
DANDE 27 Jan 14:12:25 14:19:31 36° 54° (NE) 14:25:17 436.750
BEESAT 27 Jan 14:16:06 14:20:55 84° 106° (ESE) 14:25:43 436.000
Gurwin Techsat 1B 27 Jan 14:16:16 14:21:31 57° 259° (W) 14:26:47 435.225
SO-50 27 Jan 14:17:44 14:22:03 33° 342° (NNW) 14:26:28 436.795
ITUPSAT 1 27 Jan 14:18:29 14:23:19 86° 108° (ESE) 14:28:07 437.325
HORYU 2 27 Jan 14:32:03 14:36:34 86° 73° (ENE) 14:41:07 437.375
TISAT 1 27 Jan 14:42:02 14:44:37 15° 307° (NW) 14:47:06 437.305
AO-7 27 Jan 14:50:07 14:58:29 80° 65° (ENE) 15:06:54 29.400- 29.500
PCSat 27 Jan 14:52:01 14:56:25 25° 248° (WSW) 15:00:43 145.827
CUSAT 1 27 Jan 14:54:17 15:01:37 62° 68° (ENE) 15:07:12 437.405
RS-15 27 Jan 15:11:50 15:22:21 47° 244° (WSW) 15:33:10 29.354- 29.394
STARS 27 Jan 15:13:18 15:17:43 52° 101° (E) 15:22:04 437.465
KKS-1 27 Jan 15:14:27 15:18:59 74° 104° (ESE) 15:23:29 437.445
ITAMSAT 1 27 Jan 15:15:11 15:18:30 16° 276° (W) 15:21:41 435.822/435.867
AUBIESAT-1 27 Jan 15:17:27 15:19:39 17° 98° (E) 15:21:56 437.475
Cubesat XI-IV 27 Jan 15:21:07 15:24:05 16° 46° (NE) 15:27:11 437.490
JAS-2 27 Jan 15:34:12 15:39:31 63° 69° (ENE) 15:44:40 435.910
SWISSCUBE 27 Jan 15:38:15 15:42:08 25° 303° (WNW) 15:45:56 437.505
CUTE-I 27 Jan 15:40:49 15:44:30 20° 50° (NE) 15:48:19 437.470
GONETS M04 27 Jan 15:52:22 15:55:55 13° 295° (WNW) 15:59:01
BEESAT 27 Jan 15:54:45 15:58:17 21° 306° (NW) 16:01:44 436.000
DANDE 27 Jan 15:56:03 16:03:45 69° 262° (W) 16:09:36 436.750
ITUPSAT 1 27 Jan 15:57:12 16:00:43 20° 306° (NW) 16:04:08 437.325
SO-50 27 Jan 15:59:40 16:03:47 27° 6° (N) 16:07:59 436.795
Gurwin Techsat 1B 27 Jan 16:01:12 16:02:49 11° 281° (WNW) 16:04:10 435.225
HORYU 2 27 Jan 16:11:04 16:13:56 16° 274° (W) 16:16:40 437.375
M-CUBED/EXP-1 PRIME 27 Jan 16:16:29 16:19:50 77° 110° (ESE) 16:23:10 437.505
O/OREOS (USA 219) 27 Jan 16:25:56 16:29:32 24° 106° (ESE) 16:33:13 437.305
MOZHAYETS 4 27 Jan 16:37:21 16:41:25 31° 94° (E) 16:45:29
CUSAT 1 27 Jan 16:37:55 16:44:11 33° 275° (W) 16:49:07 437.405
AO-7 27 Jan 16:44:46 16:52:13 33° 268° (W) 16:59:32 29.400- 29.500
STARS 27 Jan 16:50:11 16:53:59 27° 300° (WNW) 16:57:44 437.465
AUBIESAT-1 27 Jan 16:51:43 16:54:57 49° 297° (WNW) 16:58:09 437.475
KKS-1 27 Jan 16:51:48 16:55:14 21° 304° (WNW) 16:58:33 437.445
Cubesat XI-IV 27 Jan 16:58:02 17:03:15 58° 67° (ENE) 17:08:32 437.490
HO-68 27 Jan 17:16:51 17:21:23 19° 36° (NE) 17:26:05 435.675
CUTE-I 27 Jan 17:18:35 17:23:54 79° 71° (ENE) 17:29:18 437.470
JAS-2 27 Jan 17:20:43 17:25:11 25° 269° (W) 17:29:25 435.910
RS-15 27 Jan 17:27:35 17:31:57 12° 268° (W) 17:35:28 29.354- 29.394
STRAND 1 27 Jan 17:39:46 17:41:04 11° 80° (E) 17:42:38 437.568
SO-50 27 Jan 17:40:39 17:45:21 46° 29° (NNE) 17:50:08 436.795
DANDE 27 Jan 17:41:01 17:45:39 18° 287° (WNW) 17:49:28 436.750
PRISM 27 Jan 17:45:23 17:48:07 17° 89° (E) 17:50:57 437.425
M-CUBED/EXP-1 PRIME 27 Jan 17:52:33 17:54:28 14° 311° (NW) 17:56:17 437.505
O/OREOS (USA 219) 27 Jan 18:04:10 18:08:38 61° 306° (NW) 18:13:10 437.305
CANX-2 27 Jan 18:09:17 18:10:50 12° 51° (NE) 18:12:31 2200.000
MOZHAYETS 4 27 Jan 18:14:27 18:18:50 44° 294° (WNW) 18:23:10
CUBESAT XI-V 27 Jan 18:23:33 18:27:42 31° 93° (E) 18:31:54 437.345
AAUSAT CUBESAT 2 27 Jan 18:29:49 18:30:59 11° 50° (NE) 18:32:19 437.432
BRITE-PL 27 Jan 18:31:56 18:36:12 27° 56° (NE) 18:40:47 437.365/2234.400
CUTE 1.7 + AOD 2 27 Jan 18:32:28 18:35:07 16° 55° (NE) 18:37:50 437.475
GOMX 1 27 Jan 18:38:32 18:42:34 23° 55° (NE) 18:46:49 467.674
Cubesat XI-IV 27 Jan 18:39:05 18:43:45 29° 268° (W) 18:48:23 437.490
CUBEBUG 2 27 Jan 18:56:04 18:57:15 11° 46° (NE) 18:58:37 437.445
DOVE 4 27 Jan 19:00:31 19:04:40 26° 57° (ENE) 19:09:01 437.250
CUTE-I 27 Jan 19:00:35 19:04:40 22° 272° (W) 19:08:41 437.470
HO-68 27 Jan 19:00:54 19:07:44 51° 59° (ENE) 19:14:37 435.675
CINEMA 3 27 Jan 19:04:04 19:07:24 19° 53° (NE) 19:10:52 145.822/145.860
YUBILEINY 27 Jan 19:04:26 19:12:04 37° 83° (E) 19:19:52 435.215
SEEDS 27 Jan 19:05:03 19:08:31 25° 61° (ENE) 19:12:02 437.485
ZACube-1 27 Jan 19:13:05 19:14:03 11° 47° (NE) 19:15:10 437.345
STRAND 1 27 Jan 19:16:25 19:21:31 59° 101° (E) 19:26:37 437.568
DX 1 27 Jan 19:19:33 19:21:37 13° 50° (NE) 19:23:47 434.975-435.025
PRISM 27 Jan 19:20:01 19:24:09 70° 289° (WNW) 19:28:17 437.425
SO-50 27 Jan 19:21:17 19:26:06 56° 231° (SW) 19:30:55 436.795
FUNcube-1 27 Jan 19:24:38 19:26:34 13° 50° (NE) 19:28:39 145.935
COMPASS 1 27 Jan 19:34:07 19:38:00 36° 65° (ENE) 19:41:54 437.405
UWE-3 27 Jan 19:38:10 19:41:18 18° 54° (NE) 19:44:32 435.000/436.395/437.385
CANX-2 27 Jan 19:41:47 19:46:01 59° 71° (ENE) 19:50:16 2200.000
O/OREOS (USA 219) 27 Jan 19:45:55 19:49:02 18° 330° (NNW) 19:52:07 437.305
MOZHAYETS 4 27 Jan 19:54:29 19:55:04 10° 314° (NW) 19:55:32
Oscar 11 27 Jan 20:00:43 20:04:37 33° 63° (ENE) 20:08:33 145.826/435.025
CUBESAT XI-V 27 Jan 20:00:51 20:05:21 46° 293° (WNW) 20:09:49 437.345
AAUSAT CUBESAT 2 27 Jan 20:01:44 20:05:52 56° 70° (ENE) 20:10:01 437.432
VELOX 1 27 Jan 20:03:14 20:05:31 14° 51° (NE) 20:07:56 145.980
CUTE 1.7 + AOD 2 27 Jan 20:06:11 20:10:30 88° 75° (ENE) 20:14:49 437.475
BRITE-PL 27 Jan 20:09:06 20:14:15 73° 257° (WSW) 20:19:49 437.365/2234.400
DELFI C3 27 Jan 20:09:12 20:12:49 31° 64° (ENE) 20:16:28 145.870
GOMX 1 27 Jan 20:14:56 20:20:06 84° 253° (WSW) 20:25:36 467.674
CUBEBUG 2 27 Jan 20:28:24 20:32:56 45° 66° (ENE) 20:37:32 437.445
UKube-1 27 Jan 20:34:40 20:38:47 44° 66° (ENE) 20:42:57 .
DOVE 4 27 Jan 20:36:52 20:41:59 74° 257° (WSW) 20:47:20 437.250
CINEMA 3 27 Jan 20:38:56 20:43:55 79° 73° (ENE) 20:49:02 145.822/145.860
SEEDS 27 Jan 20:39:56 20:44:08 53° 260° (W) 20:48:19 437.485
ZACube-1 27 Jan 20:45:03 20:49:27 46° 66° (ENE) 20:53:53 437.345
HO-68 27 Jan 20:48:42 20:55:37 48° 261° (W) 21:02:30 435.675
DX 1 27 Jan 20:52:48 20:57:07 64° 70° (ENE) 21:01:29 434.975-435.025
STRAND 1 27 Jan 20:56:01 21:00:30 30° 302° (WNW) 21:04:55 437.568
PRISM 27 Jan 20:56:59 20:59:02 13° 308° (NW) 21:00:58 437.425
FUNcube-1 27 Jan 20:57:34 21:02:05 57° 69° (ENE) 21:06:39 145.935
50 SAT 27 Jan 20:59:23 21:02:59 29° 63° (ENE) 21:06:37 437.505
YUBILEINY 27 Jan 20:59:47 21:08:27 69° 287° (WNW) 21:17:12 435.215
AIST 1 27 Jan 21:00:12 21:02:40 15° 56° (NE) 21:05:16
SO-50 27 Jan 21:03:46 21:05:48 12° 250° (WSW) 21:07:37 436.795
HUMSAT D 27 Jan 21:04:05 21:08:10 40° 66° (ENE) 21:12:17 437.325/437.525
ESTCUBE 1 27 Jan 21:05:18 21:08:41 22° 57° (ENE) 21:12:11 437.505/2401.250
AISAT 27 Jan 21:07:55 21:12:05 40° 65° (ENE) 21:16:19 437.250
COMPASS 1 27 Jan 21:09:54 21:13:47 34° 265° (W) 21:17:38 437.405
UWE-3 27 Jan 21:12:33 21:17:16 86° 76° (ENE) 21:22:01 435.000/436.395/437.385
CANX-2 27 Jan 21:18:59 21:22:21 21° 270° (W) 21:25:39 2200.000
Oscar 11 27 Jan 21:36:40 21:40:46 39° 263° (W) 21:44:52 145.826/435.025
VELOX 1 27 Jan 21:36:58 21:41:23 68° 70° (ENE) 21:45:52 145.980
AAUSAT CUBESAT 2 27 Jan 21:38:33 21:41:53 22° 270° (W) 21:45:09 437.432
CUBESAT XI-V 27 Jan 21:40:37 21:41:49 11° 313° (NW) 21:42:50 437.345
DELFI C3 27 Jan 21:44:13 21:48:02 37° 263° (W) 21:51:51 145.870
CUTE 1.7 + AOD 2 27 Jan 21:44:39 21:47:08 15° 275° (W) 21:49:28 437.475
SPROUT 27 Jan 21:46:57 21:49:27 16° 53° (NE) 21:52:06 437.525
BRITE-PL 27 Jan 21:50:52 21:53:56 15° 281° (W) 21:56:53 437.365/2234.400
CUBEBUG 1 27 Jan 21:51:41 21:55:49 44° 66° (ENE) 22:00:02 437.445
GOMX 1 27 Jan 21:55:40 21:59:11 17° 278° (W) 22:02:38 467.674
QB50P2 27 Jan 21:56:28 21:57:42 11° 82° (E) 21:59:08 145.880/145.840
UNISAT 6 27 Jan 21:59:49 22:03:01 19° 87° (E) 22:06:15 437.425
CUBEBUG 2 27 Jan 22:05:27 22:09:48 33° 267° (W) 22:14:08 437.445
QB50P1 27 Jan 22:05:49 22:07:55 14° 84° (E) 22:10:11 145.935-145.965
UKube-1 27 Jan 22:11:18 22:15:07 29° 266° (W) 22:18:56 .
DOVE 4 27 Jan 22:17:48 22:20:48 15° 279° (W) 22:23:40 437.250
CINEMA 3 27 Jan 22:18:02 22:21:47 20° 274° (W) 22:25:28 145.822/145.860
POLYITAN 1 27 Jan 22:18:40 22:21:36 18° 88° (E) 22:24:36 437.675
ZACube-1 27 Jan 22:21:52 22:26:00 31° 267° (W) 22:30:07 437.345
BUGSAT 1 27 Jan 22:27:27 22:30:12 17° 87° (E) 22:33:04 437.445
TISAT 1 27 Jan 22:29:20 22:33:04 30° 62° (ENE) 22:36:51 437.305
DX 1 27 Jan 22:30:31 22:33:50 20° 270° (W) 22:37:05 434.975-435.025
50 SAT 27 Jan 22:34:03 22:38:01 41° 262° (W) 22:41:59 437.505
FUNcube-1 27 Jan 22:34:57 22:38:47 25° 269° (W) 22:42:35 145.935
ANTELSAT 27 Jan 22:35:05 22:39:18 36° 96° (E) 22:43:25 437.575/2403.000
AIST 1 27 Jan 22:36:44 22:41:06 86° 74° (ENE) 22:45:28
POPSAT HIP 1 27 Jan 22:39:21 22:42:59 26° 92° (E) 22:46:38 437.405
HUMSAT D 27 Jan 22:40:09 22:44:06 32° 266° (W) 22:48:00 437.325/437.525
ESTCUBE 1 27 Jan 22:40:43 22:45:12 70° 257° (WSW) 22:49:43 437.505/2401.250
DUCHIFAT 1 27 Jan 22:43:08 22:46:50 27° 93° (E) 22:50:33 145.980
HO-68 27 Jan 22:43:19 22:45:28 11° 286° (WNW) 22:47:09 435.675
TIGRISAT 27 Jan 22:43:57 22:48:18 42° 97° (E) 22:52:31 435.000
AISAT 27 Jan 22:44:45 22:48:49 33° 265° (W) 22:52:54 437.250
UWE-3 27 Jan 22:51:21 22:54:30 17° 275° (W) 22:57:32 435.000/436.395/437.385
YUBILEINY 27 Jan 23:00:30 23:07:17 24° 315° (NW) 23:13:56 435.215
O/OREOS (USA 219) 27 Jan 23:09:53 23:11:55 13° 20° (NNE) 23:14:01 437.305
VELOX 1 27 Jan 23:15:09 23:18:29 20° 271° (W) 23:21:44 145.980
GONETS M04 27 Jan 23:16:52 23:19:30 12° 64° (ENE) 23:22:39
NANOSAT C BR1 27 Jan 23:17:00 23:21:16 53° 101° (E) 23:25:30 145.865
SPROUT 27 Jan 23:20:38 23:24:57 80° 73° (ENE) 23:29:20 437.525
CUBEBUG 1 27 Jan 23:28:33 23:32:23 29° 266° (W) 23:36:14 437.445
QB50P2 27 Jan 23:30:11 23:34:32 71° 103° (ESE) 23:38:50 145.880/145.840
UNISAT 6 27 Jan 23:35:50 23:40:24 72° 289° (WNW) 23:44:49 437.425
SWISSCUBE 27 Jan 23:36:38 23:40:47 31° 60° (ENE) 23:45:00 437.505
QB50P1 27 Jan 23:40:13 23:44:35 86° 105° (ESE) 23:48:54 145.935-145.965
BEESAT 27 Jan 23:52:32 23:56:54 38° 63° (ENE) 00:01:20 436.000
POLYITAN 1 27 Jan 23:53:44 23:58:06 73° 288° (WNW) 00:02:24 437.675
ITUPSAT 1 27 Jan 23:55:11 23:59:34 39° 64° (ENE) 00:04:02 437.325
BUGSAT 1 28 Jan 00:01:58 00:06:17 76° 287° (WNW) 00:10:34 437.445
TISAT 1 28 Jan 00:04:45 00:08:48 42° 262° (W) 00:12:54 437.305
ANTELSAT 28 Jan 00:11:56 00:16:09 37° 296° (WNW) 00:20:14 437.575/2403.000
POPSAT HIP 1 28 Jan 00:14:56 00:19:08 49° 292° (WNW) 00:23:18 437.405
ISS 28 Jan 00:15:46 00:18:39 28° 159° (SSE) 00:21:33 145.825
AIST 1 28 Jan 00:15:47 00:18:13 14° 277° (W) 00:20:30
DUCHIFAT 1 28 Jan 00:18:45 00:22:55 46° 293° (WNW) 00:27:02 145.980
TIGRISAT 28 Jan 00:20:54 00:25:00 33° 298° (WNW) 00:28:57 435.000
ESTCUBE 1 28 Jan 00:21:26 00:23:03 11° 278° (W) 00:24:28 437.505/2401.250
AUBIESAT-1 28 Jan 00:39:15 00:41:30 16° 51° (NE) 00:43:45 437.475
STARS 28 Jan 00:42:26 00:45:42 21° 56° (NE) 00:49:04 437.465
KKS-1 28 Jan 00:43:59 00:47:46 28° 60° (ENE) 00:51:38 437.445
O/OREOS (USA 219) 28 Jan 00:48:36 00:52:46 33° 44° (NE) 00:56:59 437.305
NANOSAT C BR1 28 Jan 00:53:20 00:56:55 25° 300° (WNW) 01:00:26 145.865
SPROUT 28 Jan 00:58:54 01:01:42 16° 274° (W) 01:04:22 437.525
GONETS M04 28 Jan 01:06:03 01:14:10 46° 87° (E) 01:22:23
QB50P2 28 Jan 01:06:49 01:10:04 21° 303° (WNW) 01:13:13 145.880/145.840
YUBILEINY 28 Jan 01:07:00 01:08:34 10° 347° (NNW) 01:09:59 435.215
UNISAT 6 28 Jan 01:13:52 01:16:29 15° 309° (NW) 01:18:56 437.425
SWISSCUBE 28 Jan 01:13:53 01:18:31 50° 260° (W) 01:23:11 437.505
QB50P1 28 Jan 01:17:01 01:19:59 18° 305° (NW) 01:22:49 145.935-145.965
Oscar 19 28 Jan 01:26:34 01:31:24 38° 96° (E) 01:36:13 437.125/150
BEESAT 28 Jan 01:30:19 01:34:48 39° 263° (W) 01:39:17 436.000
POLYITAN 1 28 Jan 01:30:57 01:33:23 15° 308° (NW) 01:35:41 437.675
ITUPSAT 1 28 Jan 01:33:05 01:37:32 38° 263° (W) 01:42:00 437.325
M-CUBED/EXP-1 PRIME 28 Jan 01:37:34 01:41:21 49° 63° (ENE) 01:44:53 437.505
BUGSAT 1 28 Jan 01:38:43 01:41:09 15° 307° (NW) 01:43:29 437.445
ITAMSAT 1 28 Jan 01:39:00 01:42:55 21° 88° (E) 01:46:57 435.822/435.867
ISS 28 Jan 01:51:36 01:54:47 46° 178° (S) 01:57:59 145.825
POPSAT HIP 1 28 Jan 01:53:11 01:54:09 11° 312° (NW) 01:54:58 437.405
MOZHAYETS 4 28 Jan 02:11:57 02:14:13 14° 51° (NE) 02:16:37
AUBIESAT-1 28 Jan 02:12:10 02:16:05 86° 247° (WSW) 02:19:43 437.475
BEESAT 2 28 Jan 02:14:47 02:15:53 11° 112° (ESE) 02:17:11 435.950
STARS 28 Jan 02:17:18 02:21:46 75° 255° (WSW) 02:26:17 437.465
HORYU 2 28 Jan 02:19:04 02:19:47 10° 81° (E) 02:20:43 437.375
KKS-1 28 Jan 02:19:50 02:24:15 52° 260° (W) 02:28:40 437.445
Gurwin Techsat 1B 28 Jan 02:25:05 02:29:56 35° 94° (E) 02:34:48 435.225
O/OREOS (USA 219) 28 Jan 02:27:57 02:32:25 51° 246° (WSW) 02:36:52 437.305
BEESAT 3 28 Jan 02:29:05 02:31:38 16° 116° (ESE) 02:34:19 437.485
CUSAT 1 28 Jan 02:30:51 02:35:01 15° 73° (ENE) 02:39:33 437.405
AO-7 28 Jan 02:44:57 02:49:39 16° 79° (ENE) 02:54:44 29.400- 29.500
GONETS M04 28 Jan 03:02:21 03:10:59 57° 292° (WNW) 03:19:34
Oscar 19 28 Jan 03:05:58 03:10:52 43° 297° (WNW) 03:15:43 437.125/150
YUBILEINY 28 Jan 03:07:38 03:10:46 12° 21° (NNE) 03:14:09 435.215
M-CUBED/EXP-1 PRIME 28 Jan 03:13:26 03:16:35 22° 260° (W) 03:19:30 437.505
ITAMSAT 1 28 Jan 03:17:50 03:23:05 78° 289° (WNW) 03:28:19 435.822/435.867
ISS 28 Jan 03:27:58 03:30:58 32° 198° (SSW) 03:33:59 145.825
DANDE 28 Jan 03:31:45 03:38:43 31° 83° (E) 03:45:57 436.750
AIST 2 28 Jan 03:36:47 03:40:22 27° 121° (ESE) 03:44:02 435.215
RS-15 28 Jan 03:37:36 03:43:26 17° 97° (E) 03:49:54 29.354- 29.394
MOZHAYETS 4 28 Jan 03:46:10 03:50:43 65° 71° (ENE) 03:55:17
BEESAT 2 28 Jan 03:49:15 03:53:21 59° 131° (SE) 03:57:30 435.950
AUBIESAT-1 28 Jan 03:50:08 03:51:35 12° 266° (W) 03:52:51 437.475
HORYU 2 28 Jan 03:53:01 03:57:29 65° 102° (ESE) 04:01:54 437.375
STARS 28 Jan 03:57:11 03:59:09 12° 277° (W) 04:00:56 437.465
PCSat 28 Jan 03:59:18 04:02:15 15° 106° (ESE) 04:05:23 145.827
CUBESAT XI-V 28 Jan 03:59:26 04:01:47 14° 51° (NE) 04:04:15 437.345
Gurwin Techsat 1B 28 Jan 04:05:00 04:10:08 49° 295° (WNW) 04:15:15 435.225
BEESAT 3 28 Jan 04:05:05 04:09:14 84° 136° (SE) 04:13:27 437.485
CUSAT 1 28 Jan 04:08:35 04:16:33 51° 93° (E) 04:24:28 437.405
JAS-2 28 Jan 04:19:22 04:24:03 29° 92° (E) 04:29:12 435.910
AO-7 28 Jan 04:36:17 04:44:33 60° 104° (ESE) 04:52:47 29.400- 29.500
PRISM 28 Jan 04:42:32 04:46:14 33° 63° (ENE) 04:49:58 437.425
Oscar 19 28 Jan 04:47:16 04:49:06 12° 318° (NW) 04:50:45 437.125/150
ITAMSAT 1 28 Jan 04:58:16 05:01:55 19° 309° (NW) 05:05:27 435.822/435.867
STRAND 1 28 Jan 05:01:14 05:05:47 34° 60° (ENE) 05:10:24 437.568
ISS 28 Jan 05:05:29 05:06:49 12° 216° (SW) 05:08:03 145.825
